Simultaneous Nadir Overpasses (SNOs) Predictions

Prediction of SNOs between AQUA and METOP-B Satellite Orbit:

Table of predicted SNOs for the next 14.0 days since TLE Epoch: 10/3/2025
Index Date (AQUA) Time (AQUA) Lat,Lon (AQUA) SZA (AQUA ) Date (METOP-B) Time (METOP-B) Lat,Lon (METOP-B) SZA (METOP-B ) Distance(km) Time Diff (sec)
1 10/04/2025 20:41:24 -77.92, 50.27 97.44 10/04/2025 20:41:04 -77.91, 50.12 97.45 3.45 20
2 10/04/2025 21:30:43 77.96,-142.27 82.62 10/04/2025 21:31:42 77.97,-142.23 82.64 1.49 59
3 10/07/2025 08:39:40 77.92, 50.75 83.53 10/07/2025 08:39:35 77.95, 50.68 83.56 3.34 5
4 10/07/2025 09:29:03 -78.18,-142.80 96.22 10/07/2025 09:30:11 -78.21,-140.61 96.15 50.05 68
5 10/09/2025 19:48:36 77.93,-116.43 84.48 10/09/2025 19:47:28 77.91,-116.48 84.46 2.03 68
6 10/09/2025 20:37:54 -77.96, 51.08 95.48 10/09/2025 20:38:09 -77.98, 51.18 95.46 2.92 15
7 10/12/2025 07:46:47 -77.92,-115.89 94.59 10/12/2025 07:46:02 -77.93,-116.03 94.58 3.28 45
8 10/12/2025 08:36:06 77.99, 51.50 85.49 10/12/2025 08:36:40 77.99, 51.61 85.50 2.66 34
9 10/14/2025 19:44:57 77.95,-115.49 86.38 10/14/2025 19:44:32 77.97,-115.45 86.40 2.30 25
10 10/14/2025 20:34:15 -77.98, 52.04 93.58 10/14/2025 20:35:14 -78.00, 52.00 93.57 1.76 59
11 10/17/2025 06:53:37 77.57, 79.11 86.94 10/17/2025 06:52:33 77.53, 75.42 86.83 88.60 64
12 10/17/2025 07:43:04 -77.99,-115.15 92.66 10/17/2025 07:43:05 -77.97,-115.13 92.69 3.21 1



Historial Predications of SNOs between AQUA and METOP-B
